Location: Maiden
(35.5760°N, 81.2120°W)
Time: 01:44:38
(UTC-04:00)

Cosmos 1833 Rocket - Pass Details

Date: 02 August 2020
Orbit: 832 x 840 km, 71.0° (Epoch: 11 August)

Event Time Altitude Azimuth Distance (km) Brightness Sun altitude
Exits shadow 21:58:16 21° 93° (E) 1,779 3.9 -16.9°
Drops below altitude 10° 22:01:53 10° 53° (NE) 2,447 5.0 -17.5°
Sets 22:04:51 0° 38° (NE) 3,387 5.9 -18.0°
